Jackpot

Texas Poker Multi Jackpot System

Kini Telah hadir Jackpot SUPER ROYAL FLUSH

Kini Telah hadir Jackpot 2000 (khusus table VIP keatas).

Ikutilah global jackpot yang tersedia di system kami, dengan system jackpot terbaru dan pertama di indonesia, anda dapat membeli jackpot dengan harga 100 rupiah saja dan menangkan hadiahnya hingga puluhan juta rupiah.

Jackpot bukanlah suatu keharusan untuk dibeli, namun kami memberikan suatu fitur tambahan untuk member tercinta dari www.livedomino77.com.

Terdapat tiga pilihan harga jackpot yang bisa anda beli yaitu :100,500,1000 dan 2000(khusus table VIP Keatas) rupiah.

Hadiah dari Multi jackpot system www.livedomino77.com

  1. full house x 10 harga jackpot yang anda beli.
      (contoh:anda membeli 1000 maka:1000 X10 = 10.000)
  2. four of kind x 250 harga jackpot yang anda beli
      (contoh:anda membeli 1000 maka:1000 X250 = 250.000)
  3. Straight flush x 1200
      (contoh:anda membeli 1000 maka:1000 X1200 = 1.200.000)
  4. Royal flush x 10000 harga jackpot yang anda beli
      (contoh:anda membeli 1000 maka:1000 X10000 = 10.000.000)
  5. SUPER ROYAL FLUSH x 30000 harga jackpot yang anda beli
      (contoh:anda membeli 1000 maka:1000 X30000 = 30.000.000)

Kondisi kartu

  1. full house adalah kondisi kartu dimana kartu anda dan kartu tengah dengan total 7 kartu bisa mendapatkan nilai 5 kartu dengan kombinasi 1 tris(three of kind) dan 1 pair, contoh 3 kartu 10 dan 2 kartu 5
  2. Four of kind adalah kondisi kartu dimana kartu anda dan kartu tengah dengan total 7 kartu bisa mendapatkan nilai 5 kartu dengan kombinasi 4 kartu yang sama jumlah dan 1 kartu apapun juga contoh anda mendapatkan 4 buah kartu angka 3 dan 1 kartu apapun.
  3. Staright flush adalah kondisi kartu dimana kartu anda dan kartu tengah dengan total 7 kartu bisa mendapatkan nilai 5 kartu dengan kombinasi seri / staright dengan kembang yang sama contoh : urutan kartu dari angka 5, 6, 7, 8 , 9 10 dengan kembang yg sama misalnya as hati
  4. Royal flush adalah kondisi kartu dimana kartu anda dan kartu tengah dengan total 7 kartu bisa mendapatkan nilai 5 kartu dengan kombinasi seri / staright dengan kembang yang sama tetapi kartu tersebut haruslah dimulai dari 10. contoh 10, Queen, Jack, King dan aces dengan kembang yang sama
  5. Super Royal flush adalah kondisi kartu dimana Kedua kartu anda digabung dengan 3 kartu pertama meja haruslah royal flush. contoh kartu anda 10,Queen kembang sama dan 3 kartu pertama meja adalah Jack, King dan aces dengan kembang yang sama

Demikian adalah penjelasan dari Multi Jackpot www.livedomino77.com terima kasih dan selamat bermain salam hoki dari kami

Texas Poker Jackpot Winner

TOP SUPER ROYAL FLUSH
No.TanggalNamaPriceWin
111/12 08:57TUMBUNG09Super Royal flush6,000,000
211/12 04:12LUKY0299Super Royal flush6,000,000
311/12 02:26ACC0E299Super Royal flush1,500,000
411/12 00:40PETOT_28Super Royal flush3,000,000
510/12 23:48OZIE1111Super Royal flush6,000,000
TOP ROYAL FLUSH
No.TanggalNamaPriceWin
111/12 10:30MAICEL08Royal flush2,000,000
211/12 10:27TOGEPASAR1Royal flush1,000,000
311/12 10:22WAKLER90Royal flush1,000,000
411/12 10:19ANDREA18Royal flush5,000,000
511/12 09:25VALEN1157Royal flush500,000
TOP STRAIGHT FLUSH
No.TanggalNamaPriceWin
111/12 10:56WAN8977Straight Flush1,200,000
211/12 10:44MTIZM150ZZStraight Flush1,200,000
311/12 10:39DRC8QHG884Straight Flush240,000
411/12 10:38SKAKDEWAStraight Flush120,000
511/12 10:36JOKI1908Straight Flush1,200,000
LATEST JACKPOT
No.TanggalNamaPriceWin
111/12 10:57G125EAQ7CHFull House5,000
211/12 10:57BRRHWF6RF7Four Of A Kind25,000
311/12 10:57KATAMBA21Full House10,000
411/12 10:57SELALUSKAFull House2,000
511/12 10:57C4KF6OCCA0Full House1,000
611/12 10:57RE7NXY5X5WFull House10,000
711/12 10:57CASSIERAFull House10,000
811/12 10:57MASKOI78Full House1,000
911/12 10:57PERAWAN_A1Full House2,000
1011/12 10:57RUBICONCONFour Of A Kind125,000
1111/12 10:57DULNYOT9Full House5,000
1211/12 10:57JEF_7548Full House1,000
1311/12 10:57PSDA991Four Of A Kind12,500
1411/12 10:57BERLAN_05Full House2,000
1511/12 10:57ALOOOTFour Of A Kind250,000
1611/12 10:57OR1HEUUDWPFull House500
1711/12 10:57AP11SFull House1,000
1811/12 10:57APRO1234Full House1,000
1911/12 10:57CANGOR666Full House10,000
2011/12 10:57KV7IGA35N0Full House1,000
2111/12 10:57T4D0013780Full House5,000
2211/12 10:57DEMIT23Full House10,000
2311/12 10:57MAKRU78Full House1,000
2411/12 10:57C64DC1BBFull House2,000
2511/12 10:57J3N3NKFull House500
2611/12 10:57TICKTOCK21Full House5,000
2711/12 10:57CG0CAAU6W4Full House20,000
2811/12 10:57TRUNKSVIFull House5,000
2911/12 10:57DIDIN12345Full House10,000
3011/12 10:56K3NZIE11Full House2,000
3111/12 10:56VIRCINFull House1,000
3211/12 10:56HAMURA64Full House5,000
3311/12 10:56LENDO33Full House2,000
3411/12 10:56YEL168Full House20,000
3511/12 10:56WAN8977Straight Flush1,200,000
3611/12 10:56FLQYZRFIWZFull House1,000
3711/12 10:56SGTHYO99Full House10,000
3811/12 10:56RIRIS18Full House10,000
3911/12 10:56PHITA07Full House1,000
4011/12 10:56ADHEAKURUSFull House5,000
4111/12 10:56LV8K7XLKQWFull House2,000
4211/12 10:56SEB4TTFull House5,000
4311/12 10:56EXTA51Full House10,000
4411/12 10:56ANJ100Four Of A Kind125,000
4511/12 10:56D1B6D466Full House2,000
4611/12 10:56HUANG30Full House1,000
4711/12 10:56OZAK4Full House5,000
4811/12 10:56IVANNNYFull House5,000
4911/12 10:56TEMPUR123Full House2,000
5011/12 10:56SAPGAFull House1,000

Domino Multi Jackpot System

Ikutilah global jackpot yang tersedia di system kami, dengan system jackpot terbaru dan pertama di indonesia, anda dapat membeli jackpot dengan harga 100 rupiah saja dan menangkan hadiahnya hingga puluhan juta rupiah.

Jackpot bukanlah suatu keharusan untuk dibeli, namun kami memberikan suatu fitur tambahan untuk member tercinta dari www.livedomino77.com.

Terdapat tiga pilihan harga jackpot yang bisa anda beli yaitu :100,500 dan 1000 rupiah.

Hadiah dari Multi jackpot system www.livedomino77.com

  1. Murni Kecil x 50 harga jackpot yang anda beli.
      (contoh:anda membeli 1000 maka:1000 X 50 = 50.000)
  2. Murni Besar x 50 harga jackpot yang anda beli
      (contoh:anda membeli 1000 maka:1000 X 50 = 50.000)
  3. BALAK x 100 harga jackpot yang anda beli
      (contoh:anda membeli 1000 maka:1000 X 100 = 100.000)
  4. ENAM DEWA x 6666 harga jackpot yang anda beli
      (contoh:anda membeli 1000 maka:1000 X 6666 = 6.666.000)

Demikian adalah penjelasan dari Multi Jackpot www.livedomino77.com terima kasih dan selamat bermain salam hoki dari kami

Domino Jackpot Winner

TOP ENAM DEWA
No.TanggalNamaPriceWin
111/12 10:22GADUH_Pmurni enam666,600
211/12 09:24TAHOKGURENmurni enam3,333,000
311/12 07:56UTY31murni enam666,600
411/12 03:15KASJA82murni enam666,600
511/12 01:10DOA__IBUmurni enam6,666,000
TOP BALAK
No.TanggalNamaPriceWin
111/12 10:56OWASEbalak100,000
211/12 10:54EFICK11balak100,000
311/12 10:53YUSUP82balak100,000
411/12 10:53OLIV46balak50,000
511/12 10:50BARCA878balak50,000
LATEST JACKPOT
No.TanggalNamaPriceWin
111/12 10:56OWASEbalak100,000
211/12 10:54FIKAH212murni kecil50,000
311/12 10:54EFICK11balak100,000
411/12 10:53YUSUP82balak100,000
511/12 10:53OLIV46balak50,000
611/12 10:52H0E62ZBJASmurni besar5,000
711/12 10:51NINKZmurni kecil50,000
811/12 10:50BARCA878balak50,000
911/12 10:50ACIL66murni besar5,000
1011/12 10:50SMVOYUXCNXmurni besar5,000
1111/12 10:49DC22AECCmurni besar50,000
1211/12 10:48GEO9901murni besar50,000
1311/12 10:47ADOK64murni kecil25,000
1411/12 10:46AADDACI01murni kecil25,000
1511/12 10:45QTKPPHEPMGmurni besar5,000
1611/12 10:45ADOK64murni kecil25,000
1711/12 10:45JOEHADImurni kecil50,000
1811/12 10:44ZAMHA66balak100,000
1911/12 10:44FUKPOKER99murni kecil50,000
2011/12 10:44TY9G34XMAKbalak50,000
2111/12 10:44BNN278balak50,000
2211/12 10:43TUTU08murni besar25,000
2311/12 10:43OWASEmurni besar50,000
2411/12 10:42TERBANG666murni besar5,000
2511/12 10:41MALINA18murni kecil50,000
2611/12 10:38BAKBRINKmurni kecil50,000
2711/12 10:38CW4XCB24CGmurni besar50,000
2811/12 10:37LUKI378balak10,000
2911/12 10:37ACIL66murni besar5,000
3011/12 10:37SAHA28murni kecil5,000
3111/12 10:37D0A30823murni besar25,000
3211/12 10:36BAYIAL02murni besar5,000
3311/12 10:36B_AL77murni kecil50,000
3411/12 10:36HAZARD02murni besar50,000
3511/12 10:35OLIV46murni kecil25,000
3611/12 10:34NINJO123lucky9910,000
3711/12 10:34ANDUS70murni besar50,000
3811/12 10:34CUPLUN88murni kecil50,000
3911/12 10:33PUTRA__999balak50,000
4011/12 10:33BLACK5TONEmurni kecil5,000
4111/12 10:32KHANIYYAmurni kecil5,000
4211/12 10:29DURIN777murni kecil50,000
4311/12 10:29MAHAR66balak100,000
4411/12 10:29DINO7979murni kecil25,000
4511/12 10:29JAKIM007murni kecil5,000
4611/12 10:28ARIP78murni kecil5,000
4711/12 10:28TEKNO_IDmurni kecil5,000
4811/12 10:28J4N499balak100,000
4911/12 10:26WINTERFELLmurni kecil5,000
5011/12 10:25ABBY_SGmurni kecil50,000

Ceme Multi Jackpot System

Jackpot dilihat dari gabungan kartu pemain dengan kartu bandar. Bandar harus membeli jackpot sebanyak jumlah player yang sedang duduk. Sebagai contoh bila terdapat 3 pemain duduk bermain, dan bandar memutuskan untuk membeli jackpot Rp 1.000, maka pada periode tersebut bandar akan membeli jackpot sebanyak 3xRp1.000 = Rp3.000.

Jackpot bukanlah suatu keharusan untuk dibeli, namun kami memberikan suatu fitur tambahan untuk member tercinta dari www.livedomino77.com.

Terdapat tiga pilihan harga jackpot yang bisa anda beli yaitu :100,500 dan 1000 rupiah.

Hadiah dari Multi jackpot system www.livedomino77.com

  1. Murni Kecil x 50 harga jackpot yang anda beli.
      (contoh:anda membeli 1000 maka:1000 X 50 = 50.000)
  2. Murni Besar x 50 harga jackpot yang anda beli
      (contoh:anda membeli 1000 maka:1000 X 50 = 50.000)
  3. BALAK x 200 harga jackpot yang anda beli
      (contoh:anda membeli 1000 maka:1000 X 200 = 200.000)
  4. ENAM DEWA x 6666 harga jackpot yang anda beli
      (contoh:anda membeli 1000 maka:1000 X 6666 = 6.666.000)

Demikian adalah penjelasan dari Multi Jackpot www.livedomino77.com terima kasih dan selamat bermain salam hoki dari kami

Ceme Jackpot Winner

TOP ENAM DEWA
No.TanggalNamaPriceWin
111/12 10:25IVANQIUmurni enam3,333,000
211/12 10:20WDLAGI98murni enam3,333,000
311/12 10:20IPGI333murni enam666,600
411/12 10:09HCN0OCUPEOmurni enam666,600
511/12 09:03WASPI99murni enam3,333,000
TOP BALAK
No.TanggalNamaPriceWin
111/12 10:56LZ67362balak100,000
211/12 10:55AILENE01balak200,000
311/12 10:54KACHUKbalak200,000
411/12 10:54EDDOH55balak20,000
511/12 10:54DUATANGG2balak100,000
LATEST JACKPOT
No.TanggalNamaPriceWin
111/12 10:57C1P0T0Xmurni besar25,000
211/12 10:57RAKAIKENmurni besar25,000
311/12 10:57LZ67362murni kecil25,000
411/12 10:57RENTALQQmurni kecil50,000
511/12 10:57MESEM_9_murni kecil50,000
611/12 10:57JUDIH123murni kecil50,000
711/12 10:57EKO_JALAKmurni kecil25,000
811/12 10:57MANANG801murni kecil50,000
911/12 10:56LZ67362balak100,000
1011/12 10:56YOYOX84murni besar50,000
1111/12 10:56RIFKI134murni besar50,000
1211/12 10:56KARDOEL01murni besar5,000
1311/12 10:56ASMORO92murni kecil25,000
1411/12 10:56CORNLLmurni kecil50,000
1511/12 10:56KACHUKmurni kecil50,000
1611/12 10:56YSHmurni kecil50,000
1711/12 10:55BEGOKBEmurni kecil50,000
1811/12 10:55KFV3TC510Ymurni kecil25,000
1911/12 10:55JITNO1murni besar25,000
2011/12 10:55SELLYNA666murni kecil25,000
2111/12 10:55SEMVHAKmurni besar25,000
2211/12 10:55ELLIPSC666murni besar5,000
2311/12 10:55BUR0Kmurni besar50,000
2411/12 10:55MITHA60murni kecil50,000
2511/12 10:55U172793TQ2JKCD5murni kecil50,000
2611/12 10:55AILENE01balak200,000
2711/12 10:54H1PPOmurni besar50,000
2811/12 10:54IFSANTINmurni besar50,000
2911/12 10:54HOLCIM31murni besar25,000
3011/12 10:54KACHUKmurni kecil50,000
3111/12 10:54KACHUKbalak200,000
3211/12 10:54EDDOH55balak20,000
3311/12 10:54ZAKEEmurni besar50,000
3411/12 10:54MDA0309murni besar50,000
3511/12 10:54RUINS948murni besar25,000
3611/12 10:54BARDI123murni kecil5,000
3711/12 10:54COSMO90murni kecil25,000
3811/12 10:54JONSUTmurni kecil5,000
3911/12 10:54LB884522murni kecil50,000
4011/12 10:54H1PPE4OAYRmurni kecil50,000
4111/12 10:54FAJARSM3murni kecil5,000
4211/12 10:54RINDUKASIHmurni kecil50,000
4311/12 10:54DUATANGG2balak100,000
4411/12 10:54MEISSYbalak100,000
4511/12 10:54KFV3TC510Ybalak100,000
4611/12 10:54KFV3TC510Ymurni kecil25,000
4711/12 10:54SUNTHALIAmurni kecil5,000
4811/12 10:54SEMVHAKmurni kecil25,000
4911/12 10:53JUDIH123murni kecil50,000
5011/12 10:53DOWNTIMEmurni besar5,000